Find Starlink 31236

NORAD ID: 58841 Int'l Des: 2024-017 Owner: SPXS Country: US Constellation: starlink operational
LEOCIRCULAR

現在のビュー

3D地球を読み込み中...

About Starlink 31236

Starlink 31236 (NORAD 58841) is a starlink constellation satellite (v2 mini) launched Jan 24, 2024 by SPXS of US. It operates in LEO, CIRCULAR orbit with a mass of 730.00 kg.

Starlink 31236について

説明を読み込み中...

次回通過

Passes for default location (London). Set your location on the main map for personalized predictions.

高度履歴

Loading altitude history...

軌道要素

1 58841U 24017R 26196.37519753 .00000479 00000-0 28314-4 0 9996
2 58841 53.1631 331.3636 0001330 78.4287 281.6863 15.30194013139605
Epoch: Jul 15, 2026 • Age: 17 hours

現在のステータス

高度 489.0 km
遠地点 / 近地点 N/A
速度 7.62 km/s
衛星直下点 -39.91°S, 34.66°W
打ち上げ日 Jan 24, 2024
運用期間 2.4 years
タイプ internet

技術仕様

分類 Payload
質量 730.00 kg
乾燥質量 700.00 kg
総質量 730.00 kg
長さ 0.30 m
直径 4.10 m
スパン 29.00 m
形状 Box + pan
製造者 SPXS
バスタイプ Starlink V2M
フェーズステータス In Orbit
所有者/国 SPXS/US

Most Searched